Location: Hodgson Observatory
(42.9992°N, 96.7577°W)
Time: 01:32:36
(UTC-05:00)

Daily predictions for brighter satellites

Satellite Brightness Start Highest point End
(mag) Time Altitude Azimuth Time Altitude Azimuth Time Altitude Azimuth
Cosmos 1844 Rocket 4.2 00:04:14 10° NW 00:08:33 27° W 00:08:33 27° W
NOSS 3-4 (A) 3.7 00:13:14 65° WNW 00:13:32 66° NW 00:20:02 10° NNE
NOSS 3-4 (C) 3.7 00:13:23 66° WNW 00:13:38 66° NW 00:20:08 10° NNE
Lacrosse 5 4.2 00:11:01 10° WNW 00:14:58 22° NNW 00:18:57 10° NNE
CENTAUR R/B 3.1 00:08:46 10° NNW 00:16:36 68° NE 00:17:32 63° E
NOSS 0 Rocket 4.3 00:20:33 62° NW 00:20:33 62° NW 00:26:36 10° NNE
Cosmos 2219 Rocket 3.4 00:22:53 36° WNW 00:23:40 37° WNW 00:28:54 10° N
CZ-2C R/B 3.9 00:20:09 10° NNE 00:23:15 34° NE 00:23:15 34° NE
ATLAS CENTAUR R/B 4.2 00:25:10 10° NNW 00:25:49 14° N 00:25:49 14° N
BREEZE-M DEB (TANK) 4.3 00:14:36 10° W 00:28:44 54° NNW 00:30:19 39° NNE
CZ-2C R/B 4.4 00:32:31 33° N 00:32:31 33° N 00:35:13 10° N
SL-16 R/B 3.5 00:35:35 32° NE 00:35:35 32° NE 00:38:36 10° NNE
USA 215 4.3 00:31:04 27° ENE 00:33:49 39° NNE 00:39:46 10° NW
Meteor 2-5 Rocket 4.4 00:29:07 10° N 00:33:36 52° NNE 00:33:36 52° NNE
Cosmos 2184 Rocket 4.4 00:50:23 57° N 00:50:23 57° N 00:55:16 10° N
Terra 4.4 00:51:20 13° WNW 00:51:20 13° WNW 00:52:31 10° WNW
Cosmos 2333 Rocket 3.7 00:49:40 29° WNW 00:50:24 29° NW 00:55:19 10° N
ATLAS CENTAUR R/B 3.6 00:40:13 10° NW 00:50:49 52° NNE 00:50:49 52° NNE
Cosmos 1943 Rocket 4.5 00:48:04 10° NNE 00:51:05 15° NE 00:52:18 14° ENE
COSMOS 2455 3.5 00:45:03 10° NNW 00:49:32 51° NNW 00:49:32 51° NNW
Cosmos 2074 Rocket 4.4 00:52:44 58° NNW 00:52:44 58° NNW 00:57:46 10° N
Cosmos 2237 Rocket 3.7 01:09:10 30° NW 01:09:10 30° NW 01:14:05 10° N
Cosmos 2369 Rocket 3.7 01:06:11 10° N 01:10:38 31° NE 01:10:38 31° NE
Mayak 1.4 01:47:22 10° N 01:48:32 18° N 01:48:32 18° N
CENTAUR R/B 4.3 02:00:05 10° NW 02:04:41 28° W 02:04:41 28° W
USA 215 3.8 02:18:24 49° NW 02:18:24 49° NW 02:23:01 10° NW
SL-16 R/B 4.0 02:17:27 22° NW 02:17:36 22° NW 02:21:54 10° N
SL-8 Rocket 4.5 02:19:57 54° NNW 02:19:57 54° NNW 02:24:52 10° N
Cosmos 2218 Rocket 4.4 02:29:48 58° NNW 02:29:48 58° NNW 02:35:08 10° N
Resurs 1-4 Rocket 4.3 02:26:38 10° NE 02:29:32 15° E 02:29:32 15° E
ADEOS Rocket 4.0 02:25:09 10° NNE 02:29:14 34° ENE 02:29:14 34° ENE
Cosmos 1943 Rocket 3.1 02:30:12 10° NNW 02:33:47 42° NNW 02:33:47 42° NNW
SL-16 R/B 4.1 02:33:19 22° E 02:35:54 30° ENE 02:41:09 10° N
CZ-2D R/B 3.9 02:43:07 10° NE 02:47:10 21° E 02:47:15 21° E
Cosmos 2369 Rocket 3.9 02:50:04 10° NW 02:52:24 23° NW 02:52:24 23° NW
Cosmos 1000 Rocket 4.5 02:55:04 10° N 03:01:09 78° ENE 03:01:09 78° ENE
Cosmos 2221 4.3 03:07:30 28° ENE 03:07:30 28° ENE 03:10:21 10° NNE
Cosmos 1943 4.1 03:08:41 40° NW 03:08:41 40° NW 03:13:26 10° NNE
Cosmos 2239 Rocket 4.5 03:09:32 76° E 03:09:34 76° E 03:15:53 10° N
Cosmos 540 Rocket 4.0 03:13:30 53° ENE 03:13:30 53° ENE 03:17:39 10° NNE
Cosmos 1763 Rocket 4.4 03:15:42 39° NNW 03:15:42 39° NNW 03:19:24 10° N
CBERS-1 4.3 03:15:15 10° NNE 03:19:40 64° NE 03:19:40 64° NE
Cosmos 1535 Rocket 4.4 03:20:25 81° SSE 03:20:42 84° E 03:27:08 10° N
AQUA 4.4 03:17:32 10° NNE 03:21:23 55° NE 03:21:23 55° NE
UNK 4.3 03:30:01 56° NE 03:30:01 56° NE 03:33:58 10° N
Cosmos 2098 Rocket 3.6 03:33:27 82° N 03:33:27 82° N 03:38:05 10° N
Cosmos 1125 Rocket 4.0 03:36:26 10° NNW 03:40:23 50° NW 03:40:23 50° NW
Lacrosse 5 3.7 03:39:34 10° NW 03:44:02 30° NNE 03:48:29 10° E
SL-08 R/B 4.3 03:45:43 36° NW 03:45:43 36° NW 03:48:45 10° NNW
Sich 1 4.2 03:40:41 10° N 03:44:49 39° ENE 03:45:34 36° ESE
Cosmos 2285 Rocket 4.2 03:43:29 51° SSE 03:44:51 63° ESE 03:51:10 10° NNE
Cosmos 1400 Rocket 4.0 03:44:40 10° N 03:47:12 38° N 03:47:12 38° N
ERS-1 4.4 03:45:16 10° NNE 03:50:16 78° ESE 03:50:23 77° SE
IRS-1C 4.0 03:45:27 10° N 03:50:48 75° WNW 03:50:55 75° W
NPP 3.9 03:45:36 10° N 03:50:47 55° WNW 03:50:47 55° WNW
USA 229 DEB 3.7 03:48:42 10° NW 03:55:51 73° WSW 04:03:08 10° SSE
USA 229 3.7 03:48:48 10° NW 03:55:57 74° WSW 04:03:14 10° SSE
COSMOS 2406 3.1 04:07:20 61° WSW 04:08:14 74° WNW 04:13:57 10° NNE
Resurs 1-4 Rocket 2.0 04:04:40 10° N 04:09:55 71° WNW 04:10:36 62° WSW
Cosmos 2123 Rocket 4.1 04:04:05 10° NNW 04:10:09 55° W 04:10:59 51° WSW
Cosmos 1908 4.4 04:14:57 32° NW 04:14:57 32° NW 04:17:28 10° N
ADEOS Rocket 3.7 04:10:56 10° N 04:15:40 31° WNW 04:16:10 30° WNW
Cosmos 1633 Rocket 3.2 04:12:01 10° N 04:16:23 71° E 04:17:29 48° SSE
Cosmos 1300 2.9 04:18:29 62° ESE 04:18:41 63° E 04:22:29 10° NNE
Cosmos 2228 Rocket 4.2 04:16:58 25° SE 04:19:00 41° E 04:23:10 10° NNE
SL-16 R/B 2.7 04:18:25 46° WSW 04:19:15 48° W 04:25:16 10° NNW
ARIANE 5 R/B 2.5 04:16:00 10° N 04:21:12 67° WNW 04:22:15 53° SW
Cosmos 1934 Rocket 4.5 04:21:40 37° W 04:22:29 39° WNW 04:28:08 10° N
CZ-2D R/B 2.4 04:22:20 10° N 04:27:31 51° WNW 04:28:34 44° WSW
NOSS 3-1 (C) 4.0 04:21:53 10° NW 04:29:30 86° SW 04:37:56 10° SSE
SL-27 R/B 2.8 04:32:31 53° NNW 04:32:31 53° NNW 04:35:29 10° NNE
Cosmos 1328 Rocket 3.5 04:37:56 39° S 04:39:30 81° E 04:43:52 10° N
Cosmos 2221 4.0 04:44:23 22° WNW 04:44:23 22° WNW 04:47:30 10° NNW
MOS 1 Rocket 3.8 04:42:02 10° N 04:46:00 36° WNW 04:46:36 34° W
BREEZE M DEB (TANK) 3.8 04:47:28 19° SE 04:47:28 19° SE 04:48:24 10° SE
Cosmos 546 4.5 04:45:51 58° WSW 04:46:33 86° NNW 04:50:24 10° ENE
Cosmos 2061 Rocket 4.1 04:43:52 17° S 04:49:02 83° E 04:55:29 10° N
IRS-1D 4.4 04:45:01 10° N 04:49:36 33° WNW 04:50:58 29° W
Cosmos 1666 Rocket 4.0 04:47:03 10° NNW 04:51:11 39° W 04:51:40 38° WSW
Cosmos 773 Rocket 4.0 04:50:51 29° SSW 04:53:36 85° WNW 04:58:56 10° NNE
Cosmos 2082 Rocket 3.1 04:49:26 13° S 04:54:06 46° ESE 04:59:28 10° NE
Cosmos 1315 Rocket 3.6 04:50:55 10° NNW 04:54:15 32° W 04:54:15 32° W
ADEOS II 2.6 04:51:38 10° NNE 04:56:50 57° E 05:01:59 10° S
Cosmos 1726 3.2 04:57:13 28° WNW 04:57:13 28° WNW 05:00:25 10° NNW
PSLV R/B 3.6 04:57:35 43° S 04:57:35 43° S 05:00:24 10° ESE
Cosmos 2016 Rocket 4.0 04:53:51 11° S 04:59:43 80° E 05:05:50 10° N
Cosmos 1933 Rocket 3.5 04:55:35 10° N 05:00:04 88° W 05:04:31 10° S
COSMOS 2487 3.4 04:59:47 19° S 05:01:59 45° ESE 05:05:23 10° NNE
Tiangong 2 2.1 05:02:41 31° S 05:03:09 33° SSE 05:06:07 10° E
Cosmos 1151 Rocket 2.9 05:05:00 19° S 05:08:00 87° W 05:12:18 10° N
PSLV R/B 4.3 05:06:53 10° NNE 05:11:01 63° E 05:15:06 10° S
BREEZE-M DEB (TANK) 2.8 05:06:38 10° WNW 05:11:15 53° N 05:13:10 10° E
Meteor 2-3 Rocket 3.7 05:06:10 10° N 05:11:51 89° E 05:17:33 10° S
CZ-4B R/B 4.3 05:06:54 10° NNE 05:12:05 42° E 05:17:08 10° S
Cosmos 1725 Rocket 4.2 05:07:46 10° S 05:13:55 73° E 05:20:05 10° NNE
Shenzhou-11 Module 2.4 05:15:35 35° SW 05:16:32 51° SSE 05:19:33 10° E
Cosmos 1892 2.6 05:12:44 10° N 05:16:36 79° W 05:20:26 10° S
CZ-2D R/B 4.4 05:13:35 10° N 05:17:05 29° WNW 05:18:26 24° WSW
UNKNOWN OBJECT B 4.1 05:14:38 10° NNW 05:18:03 26° WNW 05:19:22 22° W
Cosmos 2100 Rocket 4.3 05:14:37 18° SW 05:19:12 50° WNW 05:25:23 10° N
Okean O Rocket 2.2 05:14:51 10° NNE 05:19:13 56° E 05:23:31 10° S
Cosmos 1802 Rocket 4.0 05:14:06 14° SSW 05:19:24 62° W 05:25:39 10° N
Cosmos 1656 3.6 05:17:01 10° NNW 05:22:44 81° WSW 05:28:25 10° SSE
Cosmos 2369 3.7 05:17:26 10° NNW 05:23:01 62° WSW 05:28:35 10° S
Cosmos 1825 4.1 05:23:06 10° N 05:26:35 33° ENE 05:30:02 10° SE
Cosmos 192 4.3 05:22:50 13° SSW 05:27:13 84° WNW 05:32:12 10° NNE
Lacrosse 5 1.8 05:22:20 10° NW 05:27:24 70° SW 05:32:26 10° SE
Cosmos 1408 4.3 05:25:51 10° N 05:29:14 36° ENE 05:32:35 10° SE
Hubble Space Telescope 3.0 05:29:18 10° SSW 05:30:08 11° S 05:30:59 10° S
USA 161 3.2 05:31:50 11° NW 05:31:50 11° NW 05:31:57 10° NW
CZ-4B R/B 3.1 05:32:29 10° N 05:36:59 77° WNW 05:41:30 10° SSW
Tsikada Rocket 4.0 05:32:14 10° N 05:38:34 78° W 05:44:56 10° S
Meteor 1-27 4.3 05:33:37 10° SSW 05:39:10 57° WNW 05:44:42 10° N
Cosmos 1371 Rocket 4.4 05:39:58 10° NNW 05:45:13 70° ENE 05:50:28 10° SSE
ATLAS 2AS CENTAUR R/B 3.8 05:37:40 10° NNW 05:45:36 57° NE 05:52:58 10° SE
Cosmos 1833 Rocket 2.7 05:43:04 10° SSW 05:48:41 68° WNW 05:54:20 10° NNE
Resurs 1-4 Rocket 4.2 05:48:02 10° NW 05:48:47 10° NW 05:49:32 10° WNW
NOSS 3-1 (A) 4.5 05:44:37 10° NW 05:51:45 40° WSW 05:59:27 10° S
ATLAS 5 CENTAUR R/B 4.4 05:54:36 10° SE 05:57:02 14° ESE 05:59:32 10° ENE
BREEZE-M DEB (TANK) 3.7 05:55:17 10° WNW 05:59:18 76° SSW 06:12:28 10° ESE
Cosmos 1624 Rocket 4.2 05:55:53 10° NNW 06:01:11 80° ENE 06:06:23 10° SSE
Cosmos 1980 Rocket 2.2 05:58:33 10° NNW 06:04:11 90° WSW 06:09:49 10° SSE
Cosmos 1869 Rocket 3.7 06:01:25 10° NNW 06:05:49 59° W 06:10:10 10° S
COSMO-SKYMED 1 4.3 06:05:01 10° SE 06:09:02 39° ENE 06:13:05 10° N
Cosmos 1455 3.3 06:07:13 10° SW 06:10:22 25° WNW 06:13:34 10° NNW
IRS-1C Rocket 4.2 06:06:54 10° N 06:12:07 63° WNW 06:17:17 10° SSW
Cosmos 1680 Rocket 4.1 06:07:28 10° SW 06:12:26 40° WNW 06:17:27 10° N
